AirNav   Everest Fuels
 
 830 users online  

99N Bamberg County Airport
Bamberg, South Carolina, USA

GOING TO BAMBERG?


FAA INFORMATION EFFECTIVE 30 JANUARY 2020

Location

FAA Identifier: 99N
Lat/Long: 33-18-16.3000N 081-06-30.3000W
33-18.271667N 081-06.505000W
33.3045278,-81.1084167
(estimated)
Elevation: 231 ft. / 70 m (estimated)
Variation: 07W (2010)
From city: 5 miles W of BAMBERG, SC
Time zone: UTC -5 (UTC -4 during Daylight Saving Time)
Zip code: 29042

Airport Operations

Airport use: Open to the public
Activation date: 10/1982
Control tower: no
ARTCC: JACKSONVILLE CENTER
FSS: ANDERSON FLIGHT SERVICE STATION
NOTAMs facility: AND (NOTAM-D service available)
Attendance: UNATNDD
Wind indicator: yes
Segmented circle: yes
Lights: MIRL RY 05/23, PAPI RY 05 AND PAPI RY 23 OPER DUSK-2200. AFTER 2200 ACTVT MIRL RY 05-23, PAPI RY 05 AND PAPI RY 23-CTAF.
Beacon: white-green (lighted land airport)
Operates sunset to sunrise.

Airport Communications

CTAF/UNICOM: 122.8
COLUMBIA APPROACH: 124.15 [SUN-FRI 0530-0030 SAT 0530-0000]
COLUMBIA DEPARTURE: 124.15 [SUN-FRI 0530-0030 SAT 0530-0000]
WX AWOS-3 at BNL (14 nm W): 119.775 (803-259-4536)
WX ASOS at OGB (15 nm NE): 118.525 (803-536-3901)
  • APCH/DEP SVC PRVDD BY COLUMBIA APCH CTL ON FREQS 124.15/338.2

Nearby radio navigation aids

VOR radial/distance  VOR name  Freq  Var
ALDr029/(19.8)ALLENDALE VOR116.7001W
CAEr187/33.3COLUMBIA VORTAC114.7002W
VANr259/34.6VANCE VORTAC110.4006W

 
NDB name  Hdg/Dist  Freq  Var  ID
AIKEN132/35.334706WAIK .- .. -.-

Airport Services

Parking: tiedowns
Airframe service: NONE
Powerplant service: NONE
Bottled oxygen: NONE
Bulk oxygen: NONE

Runway Information

Runway 5/23

Dimensions: 3603 x 60 ft. / 1098 x 18 m
Surface: asphalt, in good condition
Weight bearing capacity: 
Single wheel: 30.0
Double wheel: 60.0
Runway edge lights: medium intensity
RUNWAY 5  RUNWAY 23
Latitude: 33-18.056975N33-18.486865N
Longitude: 081-06.748578W081-06.260402W
Elevation: 208.3 ft.230.7 ft.
Traffic pattern: leftleft
Runway heading: 051 magnetic, 044 true231 magnetic, 224 true
Markings: nonprecision, in good conditionnonprecision, in good condition
Visual slope indicator: 2-light PAPI on left (3.00 degrees glide path)2-light PAPI on left (3.00 degrees glide path)
Touchdown point: yes, no lightsyes, no lights
Obstructions: 71 ft. tree, 559 ft. from runway, 294 ft. left of centerline, 5:1 slope to clear68 ft. tree, 634 ft. from runway, 309 ft. right of centerline, 6:1 slope to clear

Airport Ownership and Management from official FAA records

Ownership: Publicly-owned
Owner: BAMBERG COUNTY
PO BOX 149
BAMBERG, SC 29003
Phone 803-245-5191
Manager: MR. JOEY PRESTON
PO BOX 149
BAMBERG, SC 29003
Phone 803-245-5191
COUNTY ADMINISTRATOR.

Airport Operational Statistics

Aircraft based on the field: 3
Single engine airplanes: 3
    
Aircraft operations: avg 58/month *
71% transient general aviation
29% local general aviation
* for 12-month period ending 05 August 2019

Additional Remarks

FOR CD CTC COLUMBIA APCH AT 803-822-5242 OR 803-822-5040.

Instrument Procedures

NOTE: All procedures below are presented as PDF files. If you need a reader for these files, you should download the free Adobe Reader.

NOT FOR NAVIGATION. Please procure official charts for flight.
FAA instrument procedures published for use from 30 January 2020 at 0901Z to 27 Feburary 2020 at 0900Z.

 
IAPs - Instrument Approach Procedures
RNAV (GPS) RWY 05   download (169KB)
RNAV (GPS) RWY 23   download (156KB)
NOTE: Special Take-Off Minimums/Departure Procedures apply   download (141KB)

Other nearby airports with instrument procedures:

KBNL - Barnwell Regional Airport (14 nm W)
KOGB - Orangeburg Municipal Airport (15 nm NE)
KXNO - North Air Force Auxiliary Field (18 nm N)
KAQX - Allendale County Airport (20 nm SW)
6J0 - Lexington County Airport (30 nm N)
 
Loc | Ops | Rwys | IFR | FBO | Links
Com | Nav | Svcs | Stats | Notes
Area around 99N (Bamberg County Airport)
 
Road maps at: MapQuest Bing Google
 
Aerial photo
WARNING: Photo may not be current or correct
Aerial photo of 99N (Bamberg County Airport)
Do you have a better or more recent aerial photo of Bamberg County Airport that you would like to share? If so, please send us your photo.

 
Sectional chart

 
Airport distance calculator
Flying to Bamberg County Airport? Find the distance to fly.

From to 99N

Sunrise and sunset
Times for 18-Feb-2020
 Local
(UTC-5)
 Zulu
(UTC)
Morning civil twilight06:4111:41
Sunrise07:0612:06
Sunset18:1123:11
Evening civil twilight18:3623:36

Current date and time
Zulu (UTC)  18-Feb-2020 13:11:28
Local (UTC-5)  18-Feb-2020 08:11:28
 
METAR
KBNL 
14nm W 
181255Z AUTO 00000KT 10SM BKN014 BKN041 BKN049 12/10 A3020 RMK AO2
KOGB 
16nm NE 
181253Z AUTO 05003KT 10SM BKN038 12/08 A3021 RMK AO2 SLP230 T01220083
KXNO 
18nm N 
181256Z AUTO 04003KT 10SM -DZ BKN039 12/12 A3022 RMK AO2 SLP236 P0000 T01170115 $
KAQX 
20nm SW 
181255Z AUTO 00000KT 10SM SCT036 SCT070 BKN085 12/10 A3020 RMK AO2
TAF
KOGB 
16nm NE 
181135Z 1812/1912 VRB03KT P6SM VCSH OVC035 TEMPO 1813/1815 4SM -RA BR BKN012 FM181500 20004KT 3SM -RA BR OVC007 TEMPO 1819/1823 2SM -RA BR OVC004 FM190100 18003KT 4SM -RA BR OVC003
NOTAMs
Click for the latest NOTAMs
NOTAMs are issued by the DoD/FAA and will open in a separate window not controlled by AirNav.

 

 
 

Would you like to see your business listed on this page?

 If your business provides an interesting product or service to pilots, flight crews, aircraft, or users of the Bamberg County Airport, you should consider listing it here.  To start the listing process, click on the button below
 
Add a business
 

Other Pages about Bamberg County Airport

Update a link
 
Copyright © AirNav, LLC. All rights reserved. Privacy Policy  Contact